Marianna, FL

8:22 AM CST on February 22, 2018 (GMT -0600)
Marianna Municipal

Weather History for KMAI - April, 2013

Change the Weather History Date:

Thursday, April 18, 2013

  Actual Average Record
Temperature  
Mean Temperature 74 °F 67 °F  
Max Temperature 84 °F 80 °F 93 °F (2006)
Min Temperature 64 °F 54 °F 41 °F (2001)
Degree Days  
Heating Degree Days 0    
Month to date heating degree days 34  
Since 1 July heating degree days 1343  
Cooling Degree Days 9    
Month to date cooling degree days 61  
Year to date cooling degree days 132  
Growing Degree Days 23 (Base 50)    
Moisture  
Dew Point 64 °F    
Average Humidity 71    
Maximum Humidity 90    
Minimum Humidity 51    
Precipitation  
Precipitation 0.00 in 0.12 in 1.98 in (2012)
Month to date precipitation 2.00 2.74  
Year to date precipitation 18.85 18.26  
Sea Level Pressure  
Sea Level Pressure 29.99 in    
Wind  
Wind Speed 7 mph (SSE)    
Max Wind Speed 16 mph    
Max Gust Speed 23 mph    
Visibility 10 miles    
Events      
T = Trace of Precipitation, MM = Missing Value Source: NWS Daily Summary

Daily Weather History Graph

Daily Weather History Graph

Search for Another Location

Airport or City:

Trip Planner

Search our weather history database for the weather conditions in past years. The results will help you decide how hot, cold, wet, or windy it might be!

Date:

Astronomy

Apr. 18, 2013 Rise Set
Actual Time 6:09 AM CDT 7:10 PM CDT
Civil Twilight 5:44 AM CDT 7:35 PM CDT
Nautical Twilight 5:15 AM CDT 8:05 PM CDT
Astronomical Twilight 4:44 AM CDT 8:35 PM CDT
Moon 12:24 PM CDT (4/18) 1:19 AM CDT (4/18)
Length of Visible Light 13h 51m
Length of Day
13h 01m
First Quarter, 52% of the Moon is Illuminated
Apr 18
First Quarter
Apr 25
Full
May 2
Last Quarter
May 9
New
May 17
First Quarter

Hourly Weather History & Observations

Time (CDT) Temp. Heat Index Dew Point Humidity Pressure Visibility Wind Dir Wind Speed Gust Speed Precip Events Conditions
12:53 AM 66.9 °F - 61.0 °F 81% 30.04 in 10.0 mi Calm Calm - N/A   Clear
1:53 AM 66.9 °F - 62.1 °F 84% 30.03 in 10.0 mi ESE 3.5 mph - N/A   Clear
2:53 AM 66.0 °F - 61.0 °F 84% 30.02 in 10.0 mi Calm Calm - N/A   Clear
3:53 AM 64.9 °F - 61.0 °F 87% 30.01 in 10.0 mi Calm Calm - N/A   Clear
4:53 AM 64.9 °F - 60.1 °F 84% 30.01 in 10.0 mi East 4.6 mph - N/A   Clear
5:53 AM 64.0 °F - 60.1 °F 87% 30.01 in 10.0 mi ESE 3.5 mph - N/A   Clear
6:53 AM 64.9 °F - 61.0 °F 87% 30.02 in 10.0 mi East 3.5 mph - N/A   Clear
7:53 AM 69.1 °F - 64.0 °F 84% 30.02 in 10.0 mi ESE 6.9 mph - N/A   Clear
8:53 AM 73.9 °F - 64.9 °F 73% 30.03 in 10.0 mi SSE 10.4 mph 17.3 mph N/A   Clear
9:53 AM 77.0 °F - 64.0 °F 64% 30.04 in 10.0 mi SSE 11.5 mph 18.4 mph N/A   Clear
10:53 AM 78.1 °F - 64.9 °F 64% 30.04 in 10.0 mi South 8.1 mph - N/A   Partly Cloudy
11:53 AM 79.0 °F - 64.9 °F 62% 30.01 in 10.0 mi South 8.1 mph - N/A   Mostly Cloudy
12:53 PM 82.9 °F 84.4 °F 64.0 °F 53% 30.00 in 10.0 mi South 13.8 mph 18.4 mph N/A   Scattered Clouds
1:53 PM 82.0 °F 83.4 °F 64.0 °F 54% 29.98 in 10.0 mi South 10.4 mph - N/A   Mostly Cloudy
2:53 PM 82.0 °F 83.1 °F 63.0 °F 52% 29.96 in 10.0 mi SSE 9.2 mph - N/A   Mostly Cloudy
3:53 PM 82.9 °F 84.4 °F 64.0 °F 53% 29.94 in 10.0 mi SSE 11.5 mph - N/A   Partly Cloudy
4:53 PM 80.1 °F 81.7 °F 64.0 °F 58% 29.94 in 10.0 mi SSE 9.2 mph - N/A   Clear
5:53 PM 80.1 °F 81.9 °F 64.9 °F 60% 29.93 in 10.0 mi SSE 8.1 mph - N/A   Clear
6:53 PM 78.1 °F - 66.0 °F 66% 29.94 in 10.0 mi SSE 6.9 mph - N/A   Partly Cloudy
7:53 PM 75.9 °F - 66.0 °F 71% 29.95 in 10.0 mi South 3.5 mph - N/A   Clear
8:53 PM 73.9 °F - 66.0 °F 76% 29.96 in 10.0 mi South 6.9 mph - N/A   Clear
9:53 PM 72.0 °F - 66.0 °F 81% 29.96 in 10.0 mi SSE 4.6 mph - N/A   Clear
10:53 PM 71.1 °F - 66.0 °F 84% 29.95 in 10.0 mi SSE 4.6 mph - N/A   Clear
11:53 PM 70.0 °F - 66.0 °F 87% 29.93 in 10.0 mi SSE 5.8 mph - N/A   Clear